This is the latest recevied weather packets stored in our database for station/object M0TJX-1. If no packets are shown the sender has not sent any weather packets the latest 10 day(s).
| Time | Temp. | Humidity | Pressure | Rain* | Wind** | Luminosity | Snow |
|---|---|---|---|---|---|---|---|
| 1788020719 | 21.67° C | 78% | 1000.9 hPa | 0 mm | - | - | - |
| 1788019819 | 21.11° C | 82% | 1000.7 hPa | 0 mm | - | - | - |
| 1788018919 | 21.67° C | 81% | 1000.6 hPa | 0 mm | - | - | - |
| 1788018019 | 21.11° C | 86% | 1000.4 hPa | 0 mm | - | - | - |
| 1788017119 | 20.56° C | 85% | 1000.4 hPa | 0 mm | - | - | - |
| 1788016219 | 20.56° C | 85% | 1000.3 hPa | 0 mm | - | - | - |
| 1788015319 | 20° C | 88% | 999.9 hPa | 0 mm | - | - | - |
| 1788014419 | 20° C | 92% | 1000 hPa | 0.25 mm | - | - | - |
| 1788013519 | 19.44° C | 94% | 999.8 hPa | 0.25 mm | - | - | - |
| 1788012619 | 18.89° C | 97% | 999.5 hPa | 0.51 mm | - | - | - |
| 1788011719 | 18.33° C | 97% | 999.3 hPa | 0.51 mm | - | - | - |
| 1788010819 | 17.78° C | 98% | 999.6 hPa | 0.76 mm | - | - | - |
| 1788009919 | 17.22° C | 97% | 999.7 hPa | 1.27 mm | - | - | - |
| 1788009019 | 17.22° C | 96% | 999.8 hPa | 1.52 mm | - | - | - |
| 1788008119 | 17.78° C | 96% | 999.6 hPa | 2.29 mm | - | - | - |
| 1788007220 | 17.78° C | 97% | 999.7 hPa | 2.29 mm | - | - | - |
| 1788006320 | 17.78° C | 97% | 999.7 hPa | 2.79 mm | - | - | - |
| 1788005420 | 17.78° C | 97% | 1000.1 hPa | 3.3 mm | - | - | - |
| 1788004520 | 17.78° C | 97% | 1000.3 hPa | 3.81 mm | - | - | - |
| 1788003620 | 17.78° C | 97% | 1000.4 hPa | 4.06 mm | - | - | - |
| 1788002720 | 17.22° C | 97% | 1000.7 hPa | 3.3 mm | - | - | - |
| 1788001820 | 17.22° C | 96% | 1000.8 hPa | 2.29 mm | - | - | - |
| 1788000920 | 17.22° C | 95% | 1001 hPa | 0.76 mm | - | - | - |
| 1788000020 | 17.22° C | 94% | 1001 hPa | 0 mm | - | - | - |
| 1787999120 | 17.78° C | 93% | 1001 hPa | 0 mm | - | - | - |
* Rain latest hour (hover to see other rain measurements)
** Current wind speed in m/s (hover to see current wind gust speed)